Regional Weather Roundup
Issued by NWS

Home | Current Version | Previous Version | Graphics & Text | Print | Product List | Glossary On
Versions: 1 2 3 4 5 6 7 8 9 10 11 12 13 14 15 16 17 18 19 20 21 22 23 24 25 26 27
000
ASUS43 KDMX 241807
RWRIA

WEATHER ROUNDUP FOR IOWA
NATIONAL WEATHER SERVICE DES MOINES IA
100 PM CDT THU APR 24 2014

NOTE: "FAIR" INDICATES FEW OR NO CLOUDS BELOW 12,000 FEET WITH NO
SIGNIFICANT WEATHER AND/OR OBSTRUCTIONS TO VISIBILITY.

* - THESE STATIONS ARE NOT NWS STATIONS...THUS NOT UNDER NWS
QUALITY CONTROL.  THEY ALSO DO NOT REPORT WEATHER SUCH
AS PRECIPITATION OR FOG.

IAZ001>003-012>014-020>022-031>034-043>046-241900-
   NORTHWEST IOWA

CITY           SKY/WX    TMP DP  RH WIND       PRES   REMARKS
CARROLL *      CLOUDY    52  46  82 NW12G21   29.70R
CHEROKEE *     CLOUDY    52  48  85 N13       29.71R
DENISON *      CLOUDY    52  48  87 NW10G21   29.71R
LE MARS *        N/A     57  50  77 N17G23    29.73S
ORANGE CITY *  PTSUNNY   55  46  71 N13G21    29.72R
SHELDON *      CLOUDY    52  46  82 N20G25    29.70S
SIOUX CITY       N/A     60  47  61 N18G26    29.72R
6HR MIN TEMP:  48; 6HR MAX TEMP:  60;

SPENCER        CLOUDY    50  45  83 NW15      29.71R
6HR MIN TEMP:  44; 6HR MAX TEMP:  50; 6HR PCP:  0.02;

STORM LAKE *   CLOUDY    48  46  93 NW14      29.71R
$$

IAZ055>058-069>071-079>083-090>094-241900-
   SOUTHWEST IOWA

CITY           SKY/WX    TMP DP  RH WIND       PRES   REMARKS
ATLANTIC *     CLOUDY    54  48  82 NW15      29.70R
AUDUBON *      PTSUNNY   54  45  71 NW12G17   29.71R
CLARINDA *     CLOUDY    55  52  88 NW15      29.72R
COUNCIL BLFS * PTSUNNY   54  52  94 N13G18    29.72R
CRESTON *      CLOUDY    54  52  94 NW18G24   29.66F FOG
HARLAN  *      CLOUDY    54  48  82 NW12G18   29.74R
LAMONI         RAIN      55  53  93 S3        29.65F FOG
6HR MIN TEMP:  53; 6HR MAX TEMP:  57; 6HR PCP:  0.32;

RED OAK *      CLOUDY    55  50  82 NW16G23   29.71S
SHENANDOAH *   CLOUDY    55  50  82 NW16G23   29.74R
$$

IAZ047>049-059>061-072>074-084-241900-
   CENTRAL IOWA

CITY           SKY/WX    TMP DP  RH WIND       PRES   REMARKS
AMES           CLOUDY    56  49  77 W9        29.65F
6HR MIN TEMP:  47; 6HR MAX TEMP:  56; 6HR PCP:  0.04;

ANKENY *       CLOUDY    55  54  94 W5        29.66R
CHARITON *     CLOUDY    55  52  88 SW5       29.66S
DES MOINES     CLOUDY    56  53  90 W8        29.66S
6HR MIN TEMP:  51; 6HR MAX TEMP:  57; 6HR PCP:  0.22;

GRINNELL*      CLOUDY    52  48  87 SE9       29.66F
KNOXVILLE *    CLOUDY    54  52  94 S9        29.66R
MARSHALLTOWN   CLOUDY    50  48  93 S9        29.65F
6HR MIN TEMP:  46; 6HR MAX TEMP:  50; 6HR PCP:  0.23;

NEWTON *       PTSUNNY   54  52  94 S12       29.66F
PELLA *        CLOUDY    53  50  90 S6        29.69R
PERRY *        CLOUDY    57  48  72 NW10G17   29.67S
$$

IAZ004>006-015-016-023>025-035-036-241900-
   NORTH CENTRAL IOWA

CITY           SKY/WX    TMP DP  RH WIND       PRES   REMARKS
ALGONA *       CLOUDY    50  45  81 NW12G21   29.68S
CLARION *      CLOUDY    52  48  87 W14       29.66R
ESTHERVILLE    CLOUDY    45  44  97 NW9       29.68S FOG
6HR MIN TEMP:  42; 6HR MAX TEMP:  45; 6HR PCP:  0.02;

FORT DODGE *   CLOUDY    54  45  71 NW13G20   29.68F
MASON CITY     CLOUDY    47  46  97 S5        29.67S
6HR MIN TEMP:  42; 6HR MAX TEMP:  47; 6HR PCP:  0.02;

FOREST CITY *  CLOUDY    46  45  93 SW5       29.66R
IOWA FALLS *   CLOUDY    54  50  87 SW9       29.66S
$$

IAZ007>011-017>019-026>030-037>042-050>054-066-241900-
   NORTHEAST IOWA

CITY           SKY/WX    TMP DP  RH WIND       PRES   REMARKS
CEDAR RAPIDS   LGT RAIN  51  46  83 S12       29.69S
6HR MIN TEMP:  47; 6HR MAX TEMP:  55; 6HR PCP:  0.10;

CHARLES CITY * CLOUDY    46  45  93 S9        29.67F FOG
CLINTON *      CLOUDY    61  37  41 S21G29    29.80R
DECORAH *      LGT RAIN  45  45 100 SE8G16    29.67F
DUBUQUE        RAIN      52  45  77 S12       29.74S
6HR MIN TEMP:  43; 6HR MAX TEMP:  56; 6HR PCP:  0.01;

MONTICELLO *   CLOUDY    52  48  87 SE10G20   29.72F
OELWEIN *      CLOUDY   N/A N/A N/A S13       29.69F HAZE
WATERLOO       LGT RAIN  48  46  93 S12       29.67F FOG
6HR MIN TEMP:  43; 6HR MAX TEMP:  48; 6HR PCP:  0.45;

$$

IAZ064-065-067-068-078-241900-
   EAST CENTRAL IOWA

CITY           SKY/WX    TMP DP  RH WIND       PRES   REMARKS
DAVENPORT      LGT RAIN  58  42  55 S14       29.78R
6HR MIN TEMP:  46; 6HR MAX TEMP:  63; 6HR PCP:  0.03;

IOWA CITY      LGT RAIN  52  49  89 S13       29.73F FOG
6HR MIN TEMP:  49; 6HR MAX TEMP:  57; 6HR PCP:  0.23;

MT. PLEASANT * RAIN      53  49  85 S14       29.75F
MUSCATINE *    RAIN      55  48  76 S9        29.76S
QUAD CITIES    RAIN      59  42  53 S16       29.77R
6HR MIN TEMP:  46; 6HR MAX TEMP:  65; 6HR PCP:  0.02;

$$

IAZ062-063-075>077-085>089-095>099-241900-
   SOUTHEAST IOWA

CITY           SKY/WX    TMP DP  RH WIND       PRES   REMARKS
BURLINGTON     CLOUDY    62  40  44 S14       29.75R
6HR MIN TEMP:  51; 6HR MAX TEMP:  63; 6HR PCP: TRACE;

FAIRFIELD *    RAIN      52  50  93 S15G23    29.70F
FORT MADISON * DRIZZLE   61  41  48 SW9       29.76S
KEOKUK *       CLOUDY    61  43  51 S6        29.74F
OSKALOOSA *      N/A     54  49  85 SE17G26   29.66F
CENTERVILLE *  CLOUDY    54  52  94 SE10      29.66F
OTTUMWA          N/A     53  48  83 SE21G28   29.64F
6HR MIN TEMP:  46; 6HR MAX TEMP:  55; 6HR PCP:  0.27;

WASHINGTON *   PTSUNNY   52  50  93 S16G28    29.72F FOG
$$

ABBREVIATIONS USED IN REMARKS
   TC - TEMPERATURES IN CELSIUS
  WCI - WIND CHILL INDEX
   HX - HEAT INDEX
  VSB - VISIBILITY
$$




USA.gov is the U.S. government's official web portal to all federal, state and local government web resources and services.